EHI
4 5 7 7 6 5 4 3 3 3 1 0 0 0 0 0 0 0 0 0 0 0 0 0 0 0 0 0 0 0 1 2 2 2 1 0 0 0 0 0 0 0 0
6 6 7 8 8 6 4 3 3 2 1 0 0 0 0 0 0 0 0 0 0 0 0 0 0 0 0 0 0 0 0 1 1 1 0 0 0 0 0 0 0 0 0
6 6 7 9 10 7 4 3 3 1 1 0 0 0 0 0 0 0 0 0 0 0 0 0 0 0 0 0 0 0 0 0 0 0 0 0 0 0 0 0 0 0 0
6 6 7 9 11 8 5 4 3 1 1 0 0 0 0 0 0 0 0 0 0 0 0 0 0 0 0 0 0 0 0 0 0 0 0 0 0 0 0 0 0 0 0
6 6 7 9 10 9 7 5 4 3 1 0 0 0 0 0 0 0 0 0 0 0 0 0 0 0 0 0 0 0 0 0 0 0 0 0 0 0 0 0 0 0 0
6 6 8 9 9 8 7 6 4 3 1 0 0 0 0 0 0 0 0 0 0 0 0 0 0 0 0 0 0 0 0 0 0 0 0 0 0 0 0 0 0 0 0
6 6 7 9 8 6 5 5 4 2 1 0 0 0 0 0 0 0 0 0 0 0 0 0 0 0 0 0 0 0 0 0 0 0 0 0 0 0 0 0 0 0 0
4 4 5 6 5 3 3 4 5 3 1 0 0 1 1 1 0 0 0 0 0 0 0 0 0 0 0 0 0 0 0 0 0 0 0 0 0 0 0 0 0 0 0
3 3 3 3 3 2 2 3 3 2 1 0 0 1 1 1 0 0 0 0 0 0 0 0 0 0 0 0 0 0 0 0 0 0 0 0 0 0 0 0 0 0 0
3 3 2 2 3 2 1 1 1 1 0 0 0 0 0 0 0 0 0 0 0 0 0 0 0 0 0 0 0 0 0 0 0 0 0 0 0 0 0 0 0 0 0
3 3 2 2 2 2 0 0 0 0 0 0 0 0 0 0 0 0 0 0 0 0 0 0 0 0 0 0 0 0 0 0 0 0 0 0 0 0 0 0 0 0 0
3 3 2 1 2 1 0 0 0 0 0 0 0 0 0 0 0 0 0 0 0 0 0 0 0 0 0 0 0 0 0 0 0 0 0 0 0 0 0 0 0 0 0
4 4 3 2 1 1 1 0 1 1 1 0 0 0 0 0 0 0 0 0 0 0 0 0 0 0 0 0 0 0 0 0 0 0 0 0 0 0 0 0 0 0 0
4 5 4 3 2 2 2 2 2 2 1 0 0 0 0 0 0 0 0 0 0 0 0 0 0 0 0 0 0 0 0 0 0 0 0 0 0 0 0 0 0 0 0
4 5 4 3 3 3 3 3 3 2 1 0 0 0 0 0 0 0 0 0 0 0 0 0 0 0 0 0 0 0 0 0 0 0 0 0 0 0 0 0 0 0 0
3 3 3 3 3 3 3 3 3 2 1 0 0 0 0 0 0 0 0 0 0 0 0 0 0 0 0 0 0 0 0 0 0 0 0 0 0 0 0 0 0 0 0
1 2 2 2 3 3 3 3 3 2 1 0 0 0 0 0 0 0 0 0 0 0 0 0 0 0 0 0 0 0 0 0 0 0 0 0 0 0 0 0 0 0 0
0 1 1 1 1 2 3 3 3 2 0 0 0 0 0 0 0 0 0 0 0 0 0 0 0 0 0 0 0 0 0 0 0 0 0 0 0 0 0 0 0 0 0
0 0 0 0 0 1 1 2 2 1 0 0 0 0 0 0 0 0 0 0 0 0 0 0 0 0 0 0 0 0 0 0 0 0 0 0 0 0 0 0 0 0 0
0 0 0 0 0 0 0 1 1 1 0 0 0 0 0 0 0 0 0 0 0 0 0 0 0 0 0 0 0 0 0 0 0 0 0 0 0 0 0 0 0 0 0
0 0 0 0 0 0 0 0 0 0 0 0 0 0 0 0 0 0 0 0 0 0 0 0 0 0 0 0 0 0 0 0 0 0 0 0 0 0 0 0 0 0 0
0 0 0 0 0 0 0 0 0 0 0 0 0 0 0 0 0 0 0 0 0 0 0 0 0 0 0 0 0 0 0 0 0 0 0 0 0 0 0 0 0 0 0
0 0 0 0 0 0 0 0 0 0 0 0 0 0 0 0 0 0 0 0 0 0 0 0 0 0 0 0 0 0 0 0 0 0 0 0 0 0 0 0 0 0 0
0 0 0 0 0 0 0 0 0 0 0 0 0 0 0 0 0 0 0 0 0 0 0 0 0 0 0 0 0 0 0 0 0 0 0 0 0 0 0 0 0 0 0
0 0 0 0 0 0 0 0 0 0 0 0 0 0 0 0 0 0 0 0 0 0 0 0 0 0 0 0 0 0 0 0 0 0 0 0 0 0 0 0 0 0 0
0 0 0 0 0 0 0 0 0 0 0 0 0 0 0 0 0 0 0 0 0 0 0 0 0 0 0 0 0 0 0 0 0 0 0 0 0 0 0 0 0 0 0
Wind_Speed
4 5 5 6 7 8 9 9 10 10 10 11 11 11 11 11 12 12 12 12 13 13 14 14 14 15 15 16 16 16 16 16 16 16 16 15 15 16 16 15 14 11 17
6 6 6 7 8 8 9 9 10 10 10 10 11 11 11 11 12 12 12 12 13 13 13 14 14 14 14 15 15 14 14 14 14 13 13 12 13 15 16 16 14 10 16
7 7 6 8 9 9 9 10 10 10 10 10 10 10 11 11 12 12 12 12 13 13 13 13 13 13 14 14 13 13 13 11 10 10 10 7 9 14 15 15 14 15 15
6 6 5 8 9 9 9 9 10 10 10 10 10 10 10 11 12 12 12 13 13 13 13 13 13 13 13 13 12 12 11 10 10 9 7 7 7 13 15 15 15 14 14
6 5 6 9 9 9 9 10 10 10 10 11 11 10 10 11 11 11 12 12 12 12 12 12 12 12 12 12 11 11 10 10 10 8 7 7 6 12 14 14 14 14 14
6 6 6 9 9 9 10 10 10 10 10 10 10 10 10 11 11 11 12 12 12 11 12 12 12 12 12 11 10 10 10 9 7 6 7 6 6 12 13 14 14 14 13
6 6 6 9 9 9 9 10 10 10 10 10 10 10 10 11 11 11 11 11 11 11 11 11 11 11 11 11 10 10 9 9 6 6 6 6 7 12 13 13 13 13 13
6 6 6 8 8 8 9 10 10 10 10 9 9 10 10 10 11 11 11 11 11 11 11 11 11 11 11 10 10 10 9 8 6 7 6 6 9 12 12 12 12 12 12
6 6 5 4 6 7 8 9 9 9 9 9 9 10 10 10 10 11 11 10 10 10 10 10 10 10 10 10 9 9 9 8 5 5 7 5 10 11 12 11 12 12 12
5 5 5 4 4 4 4 7 8 8 9 9 9 9 9 9 9 10 9 9 9 9 9 10 10 10 9 9 8 8 8 7 4 6 4 6 10 11 11 11 11 11 11
5 4 4 4 4 3 3 6 6 7 8 7 6 7 6 4 5 5 8 9 9 9 9 9 9 9 8 7 7 7 6 3 5 4 4 8 10 10 11 10 10 10 10
4 4 4 4 4 4 3 3 3 3 4 3 3 3 3 3 4 5 8 8 9 8 8 8 8 7 5 3 4 5 3 4 4 4 5 9 10 10 10 10 9 9 9
4 4 4 3 4 4 3 2 2 2 2 3 3 3 2 3 3 3 3 4 4 5 3 3 4 2 3 2 2 3 3 3 3 3 4 9 9 9 9 9 9 8 8
4 3 3 3 3 3 3 2 2 2 2 2 2 2 2 2 2 2 2 2 2 2 2 2 2 2 3 3 3 3 4 3 3 2 4 8 8 8 8 8 8 8 8
5 4 3 3 3 3 3 2 3 2 2 2 2 2 3 2 2 2 2 2 2 2 2 2 2 2 3 3 3 3 3 3 3 3 3 7 8 8 7 7 7 8 7
5 4 3 3 3 3 3 2 2 2 2 2 2 2 3 2 2 2 2 2 2 2 2 2 2 2 2 2 3 3 3 2 3 3 3 4 7 7 7 7 7 6 7
5 5 4 4 3 3 3 2 2 2 2 2 2 2 3 2 2 2 2 2 2 2 2 2 3 3 3 3 3 3 2 2 3 3 3 2 2 5 6 7 7 7 7
4 5 4 4 4 3 3 2 2 2 2 2 1 1 2 3 3 2 2 2 2 2 2 2 2 2 2 2 2 2 2 2 2 3 3 2 2 2 4 6 6 6 6
4 5 4 3 3 3 3 2 2 2 2 2 1 1 2 2 2 2 2 2 2 2 2 2 2 2 2 2 1 1 1 1 1 2 2 2 2 2 2 4 6 6 6
4 4 5 4 3 3 2 2 1 2 1 1 1 1 2 2 2 2 2 2 2 2 2 2 2 2 2 1 1 1 1 1 1 1 1 2 2 2 2 2 2 3 6
3 3 4 4 3 3 2 1 1 1 1 1 1 1 1 2 2 2 2 2 1 2 2 2 2 2 1 1 2 1 1 0 1 1 1 1 1 2 2 2 1 1 2
2 2 2 3 4 3 2 1 1 1 1 1 1 1 1 1 2 2 3 2 2 1 2 2 2 1 1 1 2 1 1 1 1 0 0 1 1 1 1 1 1 1 1
2 1 1 1 2 3 3 1 1 1 1 0 1 1 1 1 2 2 3 3 2 2 2 2 2 2 2 1 1 2 2 1 1 1 1 1 1 1 1 1 1 1 1
1 1 1 1 1 2 3 3 3 2 2 2 1 1 1 1 2 2 3 3 3 2 2 2 1 1 3 2 1 0 1 2 2 1 2 1 1 1 1 0 1 0 0
1 1 0 0 0 1 2 3 3 2 1 1 1 2 2 2 2 2 3 3 3 3 3 3 2 2 2 3 2 1 0 0 1 2 2 2 1 1 1 1 1 1 1
2 2 1 1 0 1 1 2 3 3 2 2 2 2 2 2 2 2 3 3 3 3 3 3 3 3 2 2 2 2 2 2 2 2 2 2 2 2 2 1 2 2 1
Wind_Direction
101 112 121 103 93 90 87 84 84 86 86 85 85 84 83 80 80 80 79 80 80 80 79 79 76 75 73 72 71 70 69 69 71 70 67 65 69 71 70 69 69 69 71
113 118 119 105 97 93 91 86 84 84 86 84 84 85 85 83 81 80 79 80 80 78 79 78 77 75 74 72 72 72 70 69 69 72 69 65 67 70 71 69 70 74 73
108 117 117 103 100 94 92 89 87 84 84 85 85 84 84 84 82 80 79 80 80 78 78 77 77 75 74 72 73 72 69 64 60 65 71 70 70 73 74 73 73 74 75
104 113 112 102 100 95 91 90 89 87 84 84 85 83 82 83 82 81 79 79 78 77 78 77 76 76 74 72 71 69 64 54 49 52 66 67 68 75 75 74 73 73 74
99 100 107 106 101 98 94 90 90 90 88 83 81 82 83 82 80 81 82 78 76 75 76 78 76 75 73 71 69 65 58 50 46 53 61 62 63 75 75 73 73 72 72
98 94 104 104 102 98 95 93 90 92 92 88 84 82 81 82 82 81 81 79 77 76 76 79 78 77 74 70 67 60 50 41 44 57 62 61 61 73 74 73 70 70 70
94 94 103 100 101 101 98 93 92 90 89 89 91 87 83 81 80 79 78 78 77 78 79 80 80 78 76 70 65 58 46 35 53 56 62 60 63 73 74 73 70 70 70
89 91 97 94 97 95 95 93 91 89 87 84 85 84 82 82 80 79 77 76 77 77 78 80 81 80 78 72 65 54 41 43 55 61 65 62 70 73 73 72 71 70 69
88 89 90 90 90 90 89 89 89 88 86 81 78 78 78 79 79 79 77 75 77 77 77 76 77 78 76 72 64 51 40 41 37 55 66 62 69 72 72 72 71 71 70
84 83 86 85 83 85 89 89 89 88 83 79 73 72 74 74 75 73 72 72 74 77 79 77 76 76 75 69 58 45 40 37 45 55 57 65 69 71 70 70 73 73 70
89 80 79 78 75 77 91 93 88 87 83 80 74 71 71 71 74 69 67 68 70 73 77 77 78 77 73 64 51 41 43 50 51 54 53 67 72 71 70 70 71 74 71
107 93 76 77 76 72 78 92 95 96 94 85 78 72 70 70 70 72 68 65 63 64 68 72 70 68 61 50 40 41 41 51 55 54 56 66 70 72 71 68 68 72 73
113 102 86 81 83 78 72 78 74 81 91 84 80 76 78 83 83 77 75 64 59 60 56 60 58 46 48 52 51 45 41 50 55 52 57 66 67 70 70 68 66 68 72
122 109 99 94 88 85 80 75 72 71 82 83 76 74 78 82 80 86 81 71 64 54 44 45 53 45 50 57 59 55 51 56 62 59 61 65 65 66 67 67 66 64 67
135 128 113 105 96 86 84 80 75 63 66 72 71 61 71 90 96 91 88 80 66 60 55 55 53 50 53 55 57 60 56 62 72 66 64 62 60 62 63 64 66 66 65
146 140 125 117 106 96 86 87 84 74 75 76 72 60 59 74 86 92 88 81 69 63 51 52 57 57 57 55 53 57 59 58 70 70 67 58 54 55 58 59 61 62 64
147 139 136 131 115 110 102 99 96 91 85 86 82 78 68 66 74 81 90 83 74 67 60 55 50 52 56 53 48 46 51 53 65 72 69 63 49 47 54 59 61 62 60
141 139 145 142 127 121 113 111 104 100 91 93 95 92 89 76 79 76 84 85 81 83 75 74 66 62 56 49 41 38 46 54 61 72 74 70 58 46 47 53 56 55 56
146 146 145 133 134 130 125 126 114 108 102 101 93 96 105 95 91 94 93 88 82 86 80 80 71 80 75 48 35 44 50 69 73 72 79 80 75 69 59 49 47 45 46
139 142 145 141 138 131 124 112 106 104 110 108 103 100 120 120 106 102 109 90 82 91 86 83 92 81 97 86 46 36 27 111 95 86 87 85 81 77 70 60 50 34 37
124 133 150 149 150 140 136 139 141 144 136 111 109 105 115 137 137 125 117 108 100 115 121 111 103 102 99 89 70 40 9 65 118 97 86 93 87 84 77 72 63 49 32
119 135 147 160 159 157 163 162 151 145 163 152 136 117 109 133 151 143 137 143 125 112 121 119 110 109 139 112 106 104 33 348 335 267 129 144 127 85 78 78 73 61 46
80 77 160 157 163 161 159 138 118 93 79 116 154 171 177 176 171 165 159 158 162 151 157 160 156 132 157 224 142 135 139 206 305 284 222 187 162 134 116 91 83 66 43
75 63 46 120 142 165 157 160 168 177 194 210 186 186 216 210 194 172 170 169 172 169 172 192 176 175 156 177 242 244 167 152 155 285 289 240 207 188 187 168 117 115 142
62 60 37 55 143 173 176 177 184 201 205 183 168 187 215 231 215 191 184 179 184 184 183 192 195 199 183 180 186 201 235 266 182 177 238 264 276 248 221 205 194 212 193
49 42 32 29 301 237 215 200 198 202 201 192 195 201 213 226 230 211 205 197 196 193 192 195 198 205 209 206 203 194 182 188 193 187 208 235 255 267 260 232 215 200 201